sat.trackr.live / text

‹ back to catalog

STARLINK-4303

NORAD 53544 · 2022-101T

PAYLOAD ACTIVE UNKNOWN

§ Identity

Operator
Country
US
Launch date
2022-08-19
Launch site
AFETR
Launch vehicle
Mass (kg)
RCS (m²)

Purposes: comms

External: N2YO · Heavens-Above · Gunter

§ Orbital elements

Epoch: 2026-05-25T04:41:52.816416Z

Period
95.44 min
Inclination
53.2125°
Eccentricity
0.0001396
Mean motion
15.08838544 rev/d
Perigee alt
538.8 km
Apogee alt
540.7 km
Semi-major
6,917.9 km
B*
7.2424e-5
RAAN
80.6707°
Arg perigee
78.7804°
Mean anomaly
281.3345°
Rev number
20,852

§ Raw data

STARLINK-43031 53544U 22101T   26145.19575019  .00000865  00000+0  72424-4 0  99932 53544  53.2125  80.6707 0001396  78.7804 281.3345 15.08838544208521

JSON: /api/v1/satellites/53544 · /tle

For live sub-satellite position, see the globe view (requires WebGL).

§ Visibility from observer

Set your observer location to see the next 7 days of passes ≥ 10°. The values pass through the URL so the page stays shareable.

No JS? Fill the form by hand. The geolocation button needs JavaScript.